Regional Weather Roundup
Issued by NWS Bismarck, ND

Home | Current Version | Previous Version | Text Only | Print | Product List | Glossary On
Versions: 1 2 3 4 5 6 7 8 9 10 11 12 13 14 15 16 17 18 19 20 21 22 23 24 25 26 27 28 29 30 31 32 33 34 35 36 37 38 39 40 41 42 43 44 45 46 47 48 49 50
000
ASUS43 KBIS 252010
RWRBIS

NWR BROADCAST TEXT
NATIONAL WEATHER SERVICE BISMARCK ND
200 PM CST THU DEC 25 2014

NOTE: "FAIR" INDICATES FEW OR NO CLOUDS BELOW 12,000 FEET WITH NO
SIGNIFICANT WEATHER AND/OR OBSTRUCTIONS TO VISIBILITY.


CITY           SKY/WX    TMP DP  RH WIND       PRES   REMARKS
WILLISTON      CLOUDY    26  19  74 NW16      29.88R WCI  14
MINOT          CLOUDY    28  22  78 NW17      29.81R WCI  16
MINOT AFB      CLOUDY    26  26  98 NW17      29.81R WCI  14
BISMARCK       CLOUDY    28  21  75 NW14      29.83R WCI  17
DICKINSON      CLOUDY    24  18  77 NW20      29.81R WCI  10
GARRISON         N/A     28  22  78 NW17      29.81R WCI  16
HETTINGER ARPT CLOUDY    26  19  74 N14G23    29.81R WCI  14
JAMESTOWN      CLOUDY    28  22  78 NW12      29.78R WCI  18
BEACH          MIX PCPN  23  19  86 N18       29.86S WCI   9
CARRINGTON     CLOUDY    27  27 100 MISG      29.79S
CROSBY         CLOUDY    23  19  86 NW21      29.88R WCI   8
HARVEY         CLOUDY    27  23  86 NW10      29.80R WCI  17
HAZEN          CLOUDY    27  19  74 NW13      29.85R WCI  16
LINTON         CLOUDY    28  28 100 NW10      29.79S WCI  19
MANDAN         CLOUDY    27  21  80 NW17G23   29.82R WCI  14
OAKES            N/A     27  27 100 N15       29.79R WCI  15
RUGBY          CLOUDY    27  25  93 NW15      29.80R WCI  15
STANLEY        CLOUDY    23  23 100 NW13G24   29.83R WCI  11
TIOGA          CLOUDY    23  23 100 N18G26    29.86R WCI   9
WATFORD CITY   MIX PCPN  25  19  80 NW14      29.85R WCI  13
$$

CITY           SKY/WX    TMP DP  RH WIND       PRES   REMARKS
GRAND FORKS    CLOUDY    28  23  81 N12       29.79R WCI  18
GRAND FORKS AF CLOUDY    29  28  99 N8        29.80R
DEVILS LAKE    CLOUDY    27  21  80 NW12      29.78R WCI  16
FARGO          CLOUDY    30  25  81 NW10      29.79R
CANDO          CLOUDY    27  23  86 N8G16     29.79R WCI  18
CAVALIER       CLOUDY    27  25  93 NW12      29.80R WCI  16
GWINNER        CLOUDY    28  28 100 N3        29.79S
LANGDON        CLOUDY    25  23  93 N9        29.77R WCI  15
ROLLA          CLOUDY    25  25 100 NW13      29.79R WCI  13
WALHALLA         N/A     27  27 100 N10       29.80R WCI  17
$$

CITY           SKY/WX    TMP DP  RH WIND       PRES   REMARKS
ABERDEEN       CLOUDY    30  24  78 N17       29.78R WCI  18
MOBRIDGE       CLOUDY    30  25  81 N12       29.76S
BUFFALO          N/A     26  20  77 N14       29.73R WCI  14
RAPID CITY     LGT SNOW  26  23  88 N18       29.75R VSB 3/4 WCI  13
GLASGOW        CLOUDY    24  16  71 NW14      29.93R WCI  12
SIDNEY         CLOUDY    27  18  69 NW15      29.91S WCI  15
WOLF POINT     CLOUDY    25  17  72 N12       29.95R WCI  14
GLENDIVE       CLOUDY    25  18  74 N15       29.90R WCI  12
MILES CITY     CLOUDY    25  20  81 N12       29.90R WCI  14
BAKER          CLOUDY    22  18  85 N14       29.85R WCI   9
$$

CITY           SKY/WX    TMP DP  RH WIND       PRES   REMARKS
BILLINGS       CLOUDY    26  21  81 NE8       29.88S WCI  18
GREAT FALLS    CLOUDY    24  21  88 W3        29.92F
REGINA         FLURRIES  12   7  79 NW18      29.93R WCI  -5
ESTEVAN        FLURRIES  23  18  80 NW20      29.87R WCI   8
$$



USA.gov is the U.S. government's official web portal to all federal, state and local government web resources and services.